When you browse on this site, cookies collect data to enhance your experience and personalize the content and advertising you see.
Visit our Privacy Policy to learn more. By continuing to use the site, you agree to this use of cookies and data.
  • In Portugal
  • List of Countries
  • For 7 days
  • Water Temperature
  • Satellite Maps
  • Weather Map
  • Weather Widgets
  • user-avatar
    Login

    Hourly Weather Przejeslaw

    Today, 19 November, Monday

    Time Temperature Precipitation Wind Pressure Humidity
    00:00 +1°C° 0.2 mm 2 mps 751 mmHg 87%
    01:00 +2°C° 0 mm 2 mps 751 mmHg 91%
    02:00 +1°C° 0.3 mm 3 mps 750 mmHg 91%
    03:00 +1°C° 0.3 mm 3 mps 750 mmHg 91%
    04:00 0°C° 0.3 mm 4 mps 750 mmHg 91%
    05:00 0°C° 0.2 mm 4 mps 750 mmHg 91%
    06:00 0°C° 0.2 mm 4 mps 750 mmHg 90%
    07:00 0°C° 0.2 mm 4 mps 750 mmHg 90%
    08:00 0°C° 0.1 mm 5 mps 750 mmHg 87%
    09:00 +1°C° 0.1 mm 5 mps 750 mmHg 84%
    10:00 +1°C° 0.1 mm 5 mps 750 mmHg 82%
    11:00 +1°C° 0.1 mm 5 mps 750 mmHg 80%
    12:00 +1°C° 0.1 mm 6 mps 750 mmHg 78%
    13:00 +1°C° 0.1 mm 6 mps 750 mmHg 77%
    14:00 +1°C° 0 mm 5 mps 750 mmHg 76%
    15:00 0°C° 0 mm 5 mps 750 mmHg 76%
    16:00 0°C° 0 mm 5 mps 750 mmHg 76%
    17:00 0°C° 0 mm 5 mps 750 mmHg 76%
    18:00 -1°C° 0 mm 6 mps 750 mmHg 76%
    19:00 -2°C° 0 mm 6 mps 750 mmHg 76%
    20:00 -2°C° 0 mm 6 mps 750 mmHg 77%
    21:00 -2°C° 0 mm 6 mps 750 mmHg 78%
    22:00 -3°C° 0 mm 6 mps 750 mmHg 79%
    23:00 -3°C° 0 mm 6 mps 750 mmHg 79%

    Tomorrow, 20 November, Tuesday

    Time Temperature Precipitation Wind Pressure Humidity
    00:00 -2°C° 0 mm 5 mps 750 mmHg 80%
    01:00 -4°C° 0 mm 5 mps 750 mmHg 81%
    02:00 -4°C° 0 mm 6 mps 749 mmHg 81%
    03:00 -4°C° 0 mm 6 mps 749 mmHg 81%
    04:00 -4°C° 0 mm 6 mps 749 mmHg 81%
    05:00 -3°C° 0 mm 6 mps 749 mmHg 81%
    06:00 -3°C° 0 mm 6 mps 749 mmHg 81%
    07:00 -2°C° 0 mm 5 mps 749 mmHg 81%
    08:00 -3°C° 0 mm 6 mps 748 mmHg 79%
    09:00 -2°C° 0 mm 6 mps 748 mmHg 77%
    10:00 -2°C° 0 mm 6 mps 748 mmHg 75%
    11:00 -1°C° 0 mm 6 mps 747 mmHg 74%
    12:00 -1°C° 0 mm 6 mps 747 mmHg 72%
    13:00 +1°C° 0 mm 6 mps 746 mmHg 71%
    14:00 -1°C° 0.1 mm 6 mps 746 mmHg 71%
    15:00 -1°C° 0.1 mm 6 mps 746 mmHg 72%
    16:00 0°C° 0.1 mm 5 mps 746 mmHg 73%
    17:00 0°C° 0.3 mm 5 mps 746 mmHg 74%
    18:00 0°C° 0.3 mm 5 mps 746 mmHg 76%
    19:00 0°C° 0.3 mm 5 mps 746 mmHg 77%
    20:00 0°C° 0.1 mm 5 mps 747 mmHg 78%
    21:00 -1°C° 0.1 mm 5 mps 747 mmHg 79%
    22:00 -1°C° 0.1 mm 4 mps 747 mmHg 80%
    23:00 -1°C° 0 mm 4 mps 747 mmHg 82%

    Day after tomorrow, 21 November, Wednesday

    Time Temperature Precipitation Wind Pressure Humidity
    00:00 -1°C° 0 mm 4 mps 748 mmHg 84%
    01:00 -1°C° 0 mm 3 mps 748 mmHg 85%
    02:00 -1°C° 0 mm 3 mps 748 mmHg 86%
    03:00 -1°C° 0 mm 3 mps 748 mmHg 87%
    04:00 -1°C° 0 mm 3 mps 748 mmHg 87%
    05:00 -1°C° 0 mm 3 mps 748 mmHg 88%
    06:00 -1°C° 0 mm 3 mps 749 mmHg 88%
    07:00 -1°C° 0 mm 3 mps 749 mmHg 89%
    08:00 -1°C° 0 mm 4 mps 749 mmHg 87%
    09:00 -1°C° 0 mm 4 mps 750 mmHg 84%
    10:00 0°C° 0 mm 4 mps 750 mmHg 82%
    11:00 0°C° 0 mm 4 mps 750 mmHg 81%
    12:00 +1°C° 0 mm 4 mps 750 mmHg 80%
    13:00 +1°C° 0 mm 4 mps 750 mmHg 78%
    14:00 +1°C° 0 mm 4 mps 751 mmHg 80%
    15:00 0°C° 0 mm 4 mps 751 mmHg 81%
    16:00 0°C° 0 mm 4 mps 751 mmHg 83%
    17:00 0°C° 0 mm 4 mps 751 mmHg 83%
    18:00 -1°C° 0 mm 4 mps 751 mmHg 83%
    19:00 -1°C° 0 mm 4 mps 751 mmHg 84%
    20:00 -1°C° 0 mm 4 mps 752 mmHg 84%
    21:00 -1°C° 0 mm 4 mps 752 mmHg 84%
    22:00 -1°C° 0 mm 4 mps 752 mmHg 85%
    23:00 -1°C° 0 mm 4 mps 752 mmHg 85%

    22 November, Thursday

    Time Temperature Precipitation Wind Pressure Humidity
    00:00 -2°C° 0 mm 4 mps 752 mmHg 86%
    01:00 -2°C° 0 mm 4 mps 752 mmHg 87%
    02:00 -2°C° 0 mm 4 mps 752 mmHg 87%
    03:00 -2°C° 0 mm 4 mps 752 mmHg 87%
    04:00 -3°C° 0 mm 4 mps 752 mmHg 87%
    05:00 -3°C° 0 mm 4 mps 752 mmHg 87%
    06:00 -3°C° 0 mm 4 mps 752 mmHg 87%
    07:00 -2°C° 0 mm 3 mps 752 mmHg 87%
    08:00 -1°C° 0 mm 3 mps 753 mmHg 84%
    09:00 0°C° 0 mm 3 mps 753 mmHg 80%
    10:00 0°C° 0 mm 3 mps 753 mmHg 77%
    11:00 +1°C° 0 mm 3 mps 753 mmHg 76%
    12:00 +2°C° 0 mm 3 mps 753 mmHg 74%
    13:00 +2°C° 0 mm 3 mps 753 mmHg 73%
    14:00 +2°C° 0 mm 3 mps 753 mmHg 76%
    15:00 +1°C° 0 mm 3 mps 753 mmHg 79%
    16:00 +1°C° 0 mm 2 mps 753 mmHg 82%
    17:00 +1°C° 0 mm 2 mps 753 mmHg 83%
    18:00 +1°C° 0 mm 2 mps 754 mmHg 85%
    19:00 +1°C° 0 mm 2 mps 754 mmHg 86%
    20:00 +1°C° 0 mm 2 mps 754 mmHg 87%
    21:00 +1°C° 0 mm 2 mps 754 mmHg 87%
    22:00 +1°C° 0 mm 2 mps 754 mmHg 88%
    23:00 +1°C° 0 mm 2 mps 754 mmHg 89%

    23 November, Friday

    Time Temperature Precipitation Wind Pressure Humidity
    00:00 +1°C° 0 mm 2 mps 755 mmHg 90%
    01:00 +1°C° 0 mm 2 mps 755 mmHg 90%
    02:00 +1°C° 0 mm 2 mps 755 mmHg 91%
    03:00 +1°C° 0 mm 2 mps 755 mmHg 91%
    04:00 +1°C° 0 mm 2 mps 755 mmHg 92%
    05:00 +1°C° 0 mm 2 mps 755 mmHg 92%
    06:00 +2°C° 0 mm 1 mps 755 mmHg 92%
    07:00 +2°C° 0 mm 1 mps 755 mmHg 93%
    08:00 +3°C° 0 mm 1 mps 756 mmHg 90%
    09:00 +4°C° 0 mm 1 mps 756 mmHg 86%
    10:00 +5°C° 0 mm 1 mps 756 mmHg 83%
    11:00 +6°C° 0 mm 1 mps 756 mmHg 81%
    12:00 +7°C° 0 mm 1 mps 756 mmHg 78%
    13:00 +7°C° 0 mm 2 mps 756 mmHg 76%
    14:00 +7°C° 0 mm 1 mps 756 mmHg 80%
    15:00 +6°C° 0 mm 1 mps 756 mmHg 85%
    16:00 +5°C° 0 mm 1 mps 755 mmHg 89%
    17:00 +4°C° 0 mm 1 mps 755 mmHg 90%
    18:00 +3°C° 0 mm 2 mps 755 mmHg 91%
    19:00 +3°C° 0 mm 2 mps 755 mmHg 91%
    20:00 +3°C° 0 mm 2 mps 755 mmHg 91%
    21:00 +3°C° 0 mm 2 mps 755 mmHg 91%
    22:00 +3°C° 0 mm 2 mps 755 mmHg 91%
    23:00 +2°C° 0 mm 2 mps 754 mmHg 91%

    24 November, Saturday

    Time Temperature Precipitation Wind Pressure Humidity
    00:00 +2°C° 0 mm 2 mps 754 mmHg 91%
    01:00 +2°C° 0 mm 2 mps 754 mmHg 91%
    02:00 +2°C° 0 mm 2 mps 754 mmHg 91%
    03:00 +2°C° 0 mm 2 mps 753 mmHg 91%
    04:00 +2°C° 0 mm 2 mps 753 mmHg 91%
    05:00 +2°C° 0 mm 2 mps 753 mmHg 91%
    06:00 +2°C° 0 mm 2 mps 752 mmHg 91%
    07:00 +2°C° 0 mm 2 mps 752 mmHg 91%
    08:00 +3°C° 0 mm 2 mps 752 mmHg 88%
    09:00 +4°C° 0 mm 2 mps 752 mmHg 84%
    10:00 +5°C° 0 mm 2 mps 752 mmHg 81%
    11:00 +5°C° 0 mm 2 mps 752 mmHg 79%
    12:00 +6°C° 0 mm 2 mps 751 mmHg 76%
    13:00 +7°C° 0 mm 2 mps 750 mmHg 74%
    14:00 +6°C° 0 mm 2 mps 750 mmHg 77%
    15:00 +6°C° 0 mm 2 mps 749 mmHg 80%
    16:00 +5°C° 0 mm 2 mps 749 mmHg 84%
    17:00 +5°C° 0 mm 2 mps 749 mmHg 84%
    18:00 +5°C° 0 mm 2 mps 749 mmHg 84%
    19:00 +4°C° 0 mm 2 mps 749 mmHg 84%
    20:00 +4°C° 0 mm 2 mps 749 mmHg 83%
    21:00 +4°C° 0 mm 2 mps 748 mmHg 83%
    22:00 +4°C° 0 mm 2 mps 748 mmHg 83%
    23:00 +4°C° 0 mm 2 mps 748 mmHg 84%
    Show more